[[{"header":{"parameterUnit":"m.s-1","parameterCategory":1,"la1":30.2991,"la2":30.254,"lo1":-89.0895,"lo2":-89.0444,"dy":0.0017,"dx":0.0017,"nx":28,"ny":28,"refTime":"2024-02-19T03:00:00:Z","depth":0,"parameterNumber":2,"parameterNumberName":"U-component_of_WINDS"},"data":[0,0,0,0,0,0,0,0,0,0,0,0,0,0,0,0,0,0,0,0,0,0,0,0,0,0,0,0,0,0,0,0,0,0,0,0,0,0,0,0,0,0,0,0,0,0,0,0,0,0,0,0,0,0,0,0,0,0,2.4916,2.4916,0,2.4947,2.4948,2.4948,2.4874,2.4871,2.4869,2.4867,2.49,2.4903,2.4906,0,0,0,0,0,0,0,0,0,0,0,0,0,2.4789,2.4792,2.4916,2.4916,2.4917,2.4947,2.4948,2.4948,2.4874,2.4871,2.4868,2.4866,2.4899,2.4903,2.4907,0,0,0,0,0,0,0,0,0,0,0,0,0,2.4835,2.4793,2.4916,2.4883,2.4881,2.4947,2.4948,2.4948,2.4875,2.4871,2.4868,2.4864,2.4898,2.4903,2.4907,2.5007,0,0,2.4921,2.4923,0,0,0,0,0,0,0,0,2.4832,2.484,2.4888,2.4886,2.4883,2.4903,2.4915,2.4968,2.4876,2.4877,2.4867,2.4863,2.4904,2.4908,2.4922,2.5008,2.501,2.4922,2.4925,2.4927,2.4928,0,0,0,0,0,0,0,2.4829,2.4838,2.4928,2.4889,2.4886,2.4866,2.4869,2.4925,2.491,2.4877,2.4871,2.4876,2.4902,2.4917,2.4922,2.501,2.4922,2.4926,2.4929,2.493,2.5174,2.5178,0,0,0,0,0,0,2.483,2.4836,2.4927,2.4929,2.4848,2.4872,2.4874,2.49,2.4909,2.4907,2.4879,2.4872,2.4911,2.4917,2.4923,2.5036,2.4926,2.4931,2.4933,2.517,2.5175,2.5179,0,0,0,0,0,0,2.4828,2.4839,2.4926,2.4881,2.4891,2.4878,2.4907,2.4903,2.4918,2.4911,2.4908,2.4898,2.4909,2.4916,2.4985,2.5036,2.4933,2.4937,2.5166,2.5172,2.5177,2.5266,0,0,0,0,0,0,2.4825,2.4839,2.4878,2.4882,2.4893,2.4989,2.491,2.4906,2.4926,2.4918,2.4928,2.4926,2.4906,2.4978,2.499,2.5041,2.4941,2.5161,2.5169,2.5175,2.5258,2.5274,2.5287,0,0,0,0,0,2.482,2.4903,2.488,2.4892,2.4942,2.4992,2.4998,2.4974,2.4931,2.4968,2.4963,2.4926,2.5029,2.4986,2.4998,2.5052,2.5158,2.5167,2.5175,2.5252,2.5271,2.5287,0,0,0,0,0,0,2.4907,2.4904,2.4878,2.4965,2.4979,2.4979,2.5027,2.4996,2.5023,2.5014,2.4983,2.4986,2.5059,2.5063,2.5015,2.5145,2.5086,2.5097,2.5141,2.5159,2.5173,2.517,2.4945,0,0,0,0,0,2.4936,2.4978,2.4972,2.5049,2.5057,2.5041,2.5062,2.5042,2.5055,2.5061,2.5061,2.5076,2.5111,2.5135,2.5168,2.5259,2.5257,2.5301,2.5315,2.5327,2.5336,2.538,2.5398,2.5206,2.5206,2.5206,0,0,2.4997,2.5,2.5029,2.5067,2.5075,2.5117,2.5047,2.5096,2.5126,2.5069,2.5132,2.5133,2.5147,2.5226,2.526,2.523,2.5389,2.5338,2.5347,2.535,2.539,2.5408,2.5424,2.5212,2.5211,2.521,0,0,2.5129,2.5137,2.5199,2.5208,2.5221,2.5208,2.5223,2.5227,2.5225,2.5288,2.5244,2.5279,2.5342,2.5352,2.5366,2.5495,2.546,2.5507,2.5581,2.5624,2.5639,2.5652,2.5695,2.5711,2.5516,2.5517,2.5517,0,2.5203,2.5265,2.5236,2.5285,2.5302,2.525,2.5311,2.5321,2.5345,2.5357,2.5323,2.5396,2.5403,2.548,2.5511,2.5525,2.5539,2.5505,2.5639,2.5652,2.5664,2.5704,2.5721,2.5522,2.5521,2.5521,2.552,0,2.5353,2.5396,2.5445,2.5466,2.5488,2.5544,2.5521,2.5547,2.5523,2.5513,2.5576,2.5581,2.5611,2.5628,2.5607,2.5702,2.5682,2.5645,2.5584,2.5688,2.5725,2.574,2.553,2.5528,2.5526,2.5525,0,0,2.5543,2.5543,2.5561,2.5567,2.5575,2.5608,2.5659,2.5687,2.5708,2.5725,2.5765,2.5817,2.578,2.5795,2.5774,2.5812,2.5909,2.5769,2.5768,2.5792,2.6009,2.6035,2.6054,2.5886,2.5889,2.5891,2.6006,0,2.567,2.5758,2.573,2.5818,2.5855,2.5804,2.5848,2.5857,2.5848,2.5878,2.5869,2.5904,2.5855,2.5863,2.5898,2.589,2.5952,2.5881,2.5921,2.5923,2.5917,2.6074,2.6104,2.6212,2.6021,2.6024,2.6026,0,2.5831,2.585,2.5941,2.5937,2.5952,2.5992,2.6012,2.6042,2.605,2.604,2.6055,2.6024,2.6073,2.6012,2.6077,2.6029,2.6044,2.6042,2.6045,2.6047,2.598,2.6077,2.6247,2.6262,2.6049,2.6047,2.6045,0,2.5955,2.6005,2.6064,2.6072,2.607,2.6098,2.6099,2.6103,2.612,2.6137,2.6147,2.6172,2.6184,2.6203,2.6179,2.6138,2.6245,2.6184,2.6237,2.6237,2.6261,2.626,2.6433,2.6275,2.6275,2.6274,2.6274,0,2.6099,2.6156,2.6119,2.6156,2.6216,2.6183,2.6244,2.6239,2.6242,2.6275,2.6233,2.6265,2.6232,2.626,2.6242,2.6296,2.6303,2.6295,2.6289,2.6298,2.6298,2.6306,2.6296,2.6279,2.6278,2.6277,2.6276,0,2.6249,2.6227,2.6287,2.6279,2.6277,2.6322,2.6315,2.6347,2.6334,2.6376,2.6384,2.6364,2.6394,2.6372,2.6404,2.6391,2.646,2.6445,2.6457,2.6452,2.6505,2.6499,2.6688,2.6709,2.654,2.6541,2.6543,0,2.6341,2.6383,2.6377,2.6395,2.6397,2.6428,2.6443,2.6411,2.6429,2.6437,2.6468,2.6494,2.6514,2.6565,2.6553,2.6575,2.6559,2.6623,2.6562,2.6567,2.6556,2.6552,2.6555,2.6635,2.6637,2.6639,2.664,0,2.6506,2.6491,2.6514,2.6532,2.6551,2.6564,2.6575,2.6592,2.6559,2.658,2.661,2.6625,2.6654,2.668,2.6697,2.6697,2.6662,2.6659,2.6672,2.668,2.6684,2.6679,2.6488,2.6655,2.6653,2.6652,2.6651,2.6651,2.6627,2.6659,2.6659,2.6685,2.6688,2.6697,2.6725,2.6713,2.6737,2.6757,2.6737,2.6771,2.6773,2.6792,2.6796,2.6822,2.6795,2.6815,2.6819,2.6824,2.683,2.6681,2.6825,2.6825,2.6824,2.6824,2.6824,0,2.6786,2.6782,2.6806,2.6819,2.6838,2.6802,2.681,2.6828,2.6859,2.6863,2.6881,2.6913,2.6937,2.6925,2.6945,2.6967,2.6951,2.6973,2.697,2.697,2.6854,2.684,2.6985,2.6985,2.6985,2.6985,2.6985,2.6985,2.6871,2.6922,2.6907,2.6958,2.6954,2.6986,2.6992,2.6999,2.7002,2.7038,2.7057,2.7048,2.7044,2.7063,2.7082,2.7078,2.7086,2.7113,2.7103,2.6995,2.6979,2.6963,2.6949,2.7116,2.7116,2.7216,2.7216,2.7217]},{"header":{"parameterUnit":"m.s-1","parameterCategory":1,"la1":30.2991,"la2":30.254,"lo1":-89.0895,"lo2":-89.0444,"dy":0.0017,"dx":0.0017,"nx":28,"ny":28,"refTime":"2024-02-19T03:00:00:Z","depth":0,"parameterNumber":3,"parameterNumberName":"V-component_of_WINDS"},"data":[0,0,0,0,0,0,0,0,0,0,0,0,0,0,0,0,0,0,0,0,0,0,0,0,0,0,0,0,0,0,0,0,0,0,0,0,0,0,0,0,0,0,0,0,0,0,0,0,0,0,0,0,0,0,0,0,0,0,1.6031,1.603,0,1.5967,1.5966,1.5966,1.5894,1.5893,1.5892,1.5891,1.5825,1.5824,1.5823,0,0,0,0,0,0,0,0,0,0,0,0,0,1.6087,1.6087,1.6031,1.603,1.6029,1.5967,1.5966,1.5966,1.5894,1.5893,1.5892,1.589,1.5825,1.5824,1.5823,0,0,0,0,0,0,0,0,0,0,0,0,0,1.6047,1.6087,1.6031,1.5986,1.5982,1.5968,1.5966,1.5965,1.5894,1.5893,1.5891,1.589,1.5825,1.5824,1.5823,1.5848,0,0,1.582,1.5819,0,0,0,0,0,0,0,0,1.605,1.6045,1.5994,1.5989,1.5984,1.5937,1.5962,1.5926,1.5895,1.5928,1.5891,1.5889,1.5863,1.5859,1.5851,1.5845,1.5842,1.582,1.5819,1.5818,1.5818,0,0,0,0,0,0,0,1.6053,1.6048,1.6006,1.5993,1.5987,1.5968,1.5961,1.5955,1.5905,1.5925,1.5919,1.5913,1.586,1.5852,1.5849,1.5841,1.582,1.5819,1.5818,1.5817,1.5848,1.5849,0,0,0,0,0,0,1.6062,1.605,1.6008,1.6004,1.6014,1.5969,1.596,1.5954,1.5905,1.5896,1.5914,1.591,1.5855,1.585,1.5846,1.5869,1.5818,1.5817,1.5817,1.5846,1.5848,1.585,0,0,0,0,0,0,1.6064,1.6059,1.601,1.6026,1.6018,1.5969,1.5962,1.5953,1.5944,1.5897,1.5888,1.5915,1.5853,1.5848,1.5847,1.5865,1.5817,1.5816,1.5844,1.5847,1.5849,1.5916,0,0,0,0,0,0,1.6066,1.606,1.607,1.6026,1.6017,1.6014,1.5964,1.5953,1.5943,1.5936,1.5895,1.5887,1.5852,1.5849,1.5846,1.5863,1.5815,1.5843,1.5845,1.5848,1.5912,1.5921,1.5928,0,0,0,0,0,1.6068,1.6092,1.6071,1.6066,1.6029,1.6015,1.601,1.5969,1.5945,1.5953,1.5922,1.5888,1.5864,1.585,1.5845,1.5863,1.5841,1.5845,1.5848,1.5909,1.5919,1.5928,0,0,0,0,0,0,1.614,1.6086,1.6062,1.6073,1.6049,1.6003,1.6013,1.5982,1.5964,1.5959,1.5908,1.59,1.5904,1.5883,1.5868,1.5882,1.5847,1.585,1.5895,1.5904,1.5912,1.5916,1.5814,0,0,0,0,0,1.6157,1.6151,1.6104,1.6118,1.6107,1.6062,1.6055,1.6025,1.5998,1.5988,1.5957,1.5932,1.5918,1.591,1.5895,1.5909,1.5897,1.5918,1.5926,1.5933,1.5935,1.5937,1.5945,1.5861,1.5861,1.5861,0,0,1.6192,1.6162,1.6162,1.6132,1.611,1.6103,1.6054,1.605,1.6044,1.5987,1.5984,1.596,1.5929,1.5934,1.5935,1.5917,1.5956,1.5937,1.5943,1.5941,1.5941,1.5949,1.5956,1.5863,1.5863,1.5862,0,0,1.6253,1.6231,1.6238,1.6217,1.6184,1.6153,1.6155,1.6113,1.6095,1.6091,1.6047,1.6039,1.6017,1.5995,1.5982,1.603,1.5997,1.6027,1.6067,1.607,1.6076,1.6082,1.6097,1.6103,1.603,1.603,1.603,0,1.6301,1.629,1.6246,1.6244,1.6231,1.6178,1.6184,1.6165,1.613,1.6121,1.6101,1.607,1.6046,1.6044,1.6055,1.6047,1.6045,1.6031,1.6079,1.6084,1.6089,1.6102,1.6108,1.6034,1.6033,1.6033,1.6033,0,1.6349,1.6342,1.6352,1.6317,1.6306,1.6308,1.6263,1.6256,1.6227,1.6197,1.6192,1.616,1.6136,1.6134,1.6106,1.6127,1.6116,1.6089,1.6053,1.6101,1.6113,1.6118,1.6039,1.6038,1.6037,1.6036,0,0,1.6453,1.6393,1.6397,1.638,1.6339,1.6332,1.633,1.6306,1.63,1.6277,1.6272,1.6254,1.6227,1.6211,1.618,1.6182,1.6219,1.6153,1.6152,1.6165,1.6236,1.6256,1.6263,1.6197,1.6198,1.6199,1.6238,0,1.6505,1.6499,1.6459,1.6464,1.6456,1.6404,1.6402,1.6376,1.6348,1.6336,1.6305,1.6291,1.6258,1.6248,1.6248,1.6215,1.6232,1.6211,1.619,1.619,1.6198,1.627,1.6291,1.633,1.6243,1.6243,1.6244,0,1.6564,1.6543,1.6548,1.6504,1.6499,1.6498,1.6471,1.6461,1.6428,1.6408,1.6389,1.6353,1.6346,1.6313,1.6302,1.6288,1.6277,1.6259,1.6259,1.6255,1.6219,1.6265,1.6342,1.6347,1.6251,1.6251,1.625,0,1.6637,1.661,1.6608,1.6595,1.6544,1.6544,1.6523,1.6489,1.6477,1.6453,1.6444,1.642,1.6406,1.6388,1.6345,1.6326,1.6337,1.6302,1.6318,1.6319,1.6322,1.6322,1.6396,1.6318,1.6318,1.6318,1.6318,0,1.6697,1.6702,1.664,1.6639,1.6641,1.6593,1.6597,1.657,1.654,1.6531,1.6486,1.6478,1.6424,1.641,1.6376,1.637,1.6365,1.6346,1.6337,1.6349,1.6351,1.634,1.6335,1.6319,1.6319,1.6319,1.6318,0,1.6778,1.6738,1.6732,1.6684,1.6672,1.6675,1.6633,1.6629,1.6598,1.6587,1.6582,1.6533,1.6513,1.6469,1.6438,1.6415,1.6416,1.6401,1.6427,1.6421,1.6438,1.6436,1.6507,1.6512,1.6433,1.6434,1.6435,0,1.6819,1.6821,1.6772,1.6763,1.6744,1.673,1.6717,1.6669,1.6656,1.6618,1.6618,1.6595,1.6574,1.6544,1.6505,1.648,1.6462,1.6488,1.6458,1.6469,1.6459,1.6459,1.6457,1.6495,1.6496,1.6497,1.6498,0,1.6894,1.6873,1.6856,1.6831,1.6816,1.6793,1.6769,1.6764,1.6709,1.6697,1.6677,1.666,1.6627,1.6604,1.6572,1.6548,1.6513,1.6508,1.6509,1.6521,1.6535,1.6525,1.6443,1.6506,1.6505,1.6505,1.6504,1.6504,1.6954,1.6952,1.6917,1.6898,1.6875,1.6852,1.6845,1.6812,1.6794,1.6764,1.6737,1.6718,1.6682,1.6636,1.6614,1.6597,1.658,1.6584,1.6584,1.6585,1.6589,1.6539,1.6592,1.6591,1.6591,1.6591,1.6591,0,1.7025,1.6999,1.6983,1.6949,1.6933,1.6902,1.6872,1.6861,1.6845,1.6816,1.6795,1.677,1.6746,1.6704,1.6676,1.667,1.6653,1.6664,1.6663,1.6657,1.6608,1.6608,1.6678,1.6678,1.6678,1.6678,1.6678,1.6678,1.7059,1.7054,1.7028,1.7009,1.6983,1.6965,1.695,1.6928,1.6903,1.6877,1.6857,1.683,1.6794,1.6762,1.6738,1.6726,1.6717,1.6733,1.6715,1.667,1.6661,1.6653,1.6653,1.6732,1.6732,1.6766,1.6766,1.6766]}]]